Location: G�migny
(47.9646°N, 1.6950°E)
Time: 20:39:46
(UTC+00:00)

STARLINK-27 - Pass Details

Date: 23 October 2019
Orbit: 548 x 551 km, 53.0° (Epoch: 21 November)

Event Time Altitude Azimuth Distance (km) Brightness Sun altitude
Rises 17:43:38 0° 284° (WNW) 2,719 8.7 -9.5°
Reaches altitude 10° 17:45:58 10° 292° (WNW) 1,825 7.4 -9.9°
Maximum altitude 17:49:54 40° 3° (N) 814 4.4 -10.6°
Enters shadow 17:53:00 15° 69° (ENE) 1,524 5.3 -11.1°
